Regional Weather Roundup
Issued by NWS

Home | Current Version | Previous Version | Graphics & Text | Print | Product List | Glossary On
Versions: 1 2 3 4 5 6 7 8 9 10 11 12 13 14 15 16 17 18 19 20 21 22 23 24 25 26 27 28 29 30 31 32 33 34 35 36 37 38 39 40 41 42 43 44 45 46 47 48 49 50
000
ASUS43 KOAX 241910
RWRNE

WEATHER ROUNDUP FOR NEBRASKA
NATIONAL WEATHER SERVICE OMAHA NE
200 PM CDT THU APR 24 2014

NOTES: SATELLITE DATA IS BEING USED TO AUGMENT CLOUD COVER ABOVE
       12000 FEET.
       "FAIR" INDICATES FEW OR NO CLOUDS BELOW 12,000 FEET WITH NO
       SIGNIFICANT WEATHER AND/OR OBSTRUCTIONS TO VISIBILITY.

  * THESE STATIONS DO NOT REPORT WEATHER SUCH AS RAIN...SNOW OR FOG.

NEZ001>004-019>022-054>056-242000-
NEBRASKA PANHANDLE

CITY           SKY/WX    TMP DP  RH WIND       PRES   REMARKS
SCOTTSBLUFF    MOSUNNY   63  17  17 W15G23    29.89F
ALLIANCE       SUNNY     61  16  17 W17G28    29.87F
CHADRON        SUNNY     65  22  19 NW17G26   29.85F
KIMBALL        SUNNY     59  13  16 W20G31    29.90F
SIDNEY         SUNNY     63  13  14 NW20G28   29.92F
$$

NEZ057>060-069>072-079>082-242000-
SOUTHWEST NEBRASKA

CITY           SKY/WX    TMP DP  RH WIND       PRES   REMARKS
NORTH PLATTE   SUNNY     66  23  19 W22G29    29.86F
IMPERIAL       SUNNY     65  10  11 NW17G24   29.90F
LEXINGTON      SUNNY     68  20  16 N21G29    29.84F
MCCOOK         SUNNY     68  16  13 NW16G26   29.88F
OGALLALA       SUNNY     65  12  13 NW16G25   29.89F
$$

NEZ005>010-023>029-035>040-094-242000-
NORTH CENTRAL NEBRASKA

CITY           SKY/WX    TMP DP  RH WIND       PRES   REMARKS
VALENTINE      SUNNY     66  20  17 NW18G25   29.81F
AINSWORTH      SUNNY     65  18  16 NW20G32   29.81F
BROKEN BOW     SUNNY     68  16  13 NW22G36   29.82F
O`NEILL        SUNNY     68  12  11 NW24G33   29.79S
ORD            SUNNY     68  21  16 N17G31    29.79S
THEDFORD       SUNNY     67  14  12 NW15G25   29.84F
$$

NEZ041-046>049-061>064-073>077-083>087-242000-
SOUTH CENTRAL NEBRASKA

CITY           SKY/WX    TMP DP  RH WIND       PRES   REMARKS
GRAND ISLAND   MOSUNNY   67  30  25 N24G30    29.80F
AURORA         PTSUNNY   66  35  31 N18G25    29.80F
HASTINGS       PTSUNNY   65  29  25 N23G30    29.82F
HEBRON         CLOUDY    60  41  50 N12G20    29.80F
HOLDREGE       SUNNY     65  24  20 NW14G25   29.84F
KEARNEY *      SUNNY     66  27  22 N18G29    29.83F
YORK           CLOUDY    63  39  42 NW14G24   29.80S
$$

NEZ011>018-030>034-042>045-242000-
NORTHEAST NEBRASKA

CITY           SKY/WX    TMP DP  RH WIND       PRES   REMARKS
NORFOLK        MOSUNNY   65  38  36 N18G25    29.74F
ALBION         SUNNY     65  24  20 N18G30    29.77F
BLAIR          CLOUDY    55  48  75 NW12      29.74S
COLUMBUS *     MOSUNNY   64  43  45 N14       29.79S
FREMONT        CLOUDY    60  46  59 NW13G18   29.77R
TEKAMAH        CLOUDY    61  49  64 NW10      29.75R
$$

NEZ050>053-065>068-078-088>093-242000-
SOUTHEAST NEBRASKA

CITY           SKY/WX    TMP DP  RH WIND       PRES   REMARKS
LINCOLN        CLOUDY    63  42  46 N21       29.76F
OMAHA EPPLEY   CLOUDY    57  48  72 NW17      29.73S
BEATRICE       CLOUDY    62  44  52 N25       29.75F
FALLS CITY     CLOUDY    57  51  80 N18G25    29.69F
NEBRASKA CITY  CLOUDY    57  51  81 NW15      29.74S
PLATTSMOUTH    CLOUDY    58  49  73 NW15      29.74S
$$

NEZ044-045-051>053-067-242000-
OMAHA AREA

CITY           SKY/WX    TMP DP  RH WIND       PRES   REMARKS
OMAHA EPPLEY   CLOUDY    57  48  72 NW17      29.73S
BLAIR          CLOUDY    55  48  75 NW12      29.74S
FREMONT        CLOUDY    60  46  59 NW13G18   29.77R
MILLARD        CLOUDY    57  47  68 NW13G20   29.74F
OFFUTT AFB     CLOUDY    59  50  73 N17G24    29.73S
PLATTSMOUTH    CLOUDY    58  49  73 NW15      29.74S
WAHOO          FAIR      59  44  58 NW17G25   29.76F
$$



USA.gov is the U.S. government's official web portal to all federal, state and local government web resources and services.